Temperature
15 16 16 16 16 17 17 17 17 17 17 17 17 17 17 17 17 16 16 16 16 16 16 16 15 15 15 15 15 15 15 15 15 15 15 15 15 15 14 15 14 14 14
15 15 16 16 16 16 16 17 17 17 17 17 17 17 17 17 16 16 16 16 16 16 16 15 15 15 15 15 15 15 15 15 15 15 15 15 14 14 14 14 14 14 14
15 15 16 16 16 16 16 16 17 17 17 17 17 17 16 16 16 16 16 16 16 16 15 15 15 15 15 15 15 15 15 15 15 15 14 14 14 14 14 14 14 14 14
15 15 15 16 16 16 16 16 16 16 16 16 16 16 16 16 16 16 16 16 16 15 15 15 15 15 15 15 14 15 15 15 15 14 13 13 13 13 13 13 13 13 13
15 15 15 16 16 16 16 16 16 16 16 16 16 16 16 16 16 16 16 16 15 15 15 15 15 15 14 14 14 14 15 14 14 13 13 13 13 13 13 13 13 13 13
14 15 15 15 15 15 15 16 16 16 16 16 16 16 16 16 16 16 16 15 15 15 15 15 15 14 14 14 14 14 14 14 14 13 13 13 12 13 13 13 13 13 13
14 14 15 15 15 15 15 15 16 16 16 16 16 16 16 16 16 15 15 15 15 15 15 15 15 14 14 14 14 14 14 14 13 13 13 12 12 13 12 12 13 12 12
14 14 14 15 15 15 15 15 15 15 16 16 16 16 16 16 15 15 15 15 15 15 15 15 14 14 14 14 14 14 14 14 13 13 12 12 12 12 12 12 12 12 12
14 14 14 14 14 15 15 15 15 15 15 15 15 15 15 15 15 15 15 15 15 15 15 15 14 14 14 14 14 14 14 14 13 12 12 12 12 12 12 12 12 12 12
13 14 14 14 14 14 14 14 15 15 15 15 15 15 15 15 15 15 15 15 15 15 15 14 14 14 14 14 14 14 13 13 12 12 12 11 12 11 11 11 11 11 12
13 13 13 14 14 14 14 14 14 14 15 15 15 15 15 15 15 15 15 15 14 14 14 14 14 14 14 13 13 13 13 12 12 12 12 12 11 11 11 11 11 11 11
13 13 13 13 14 14 14 14 14 14 14 14 14 14 14 14 14 14 14 14 14 14 14 14 14 13 13 13 13 13 12 12 12 11 11 11 11 11 11 11 11 11 11
12 12 13 13 13 13 14 13 14 14 14 14 14 14 14 14 14 14 14 14 14 13 13 13 13 13 13 13 12 12 12 12 11 11 11 11 11 11 11 11 11 11 11
12 12 12 12 13 13 13 13 13 13 13 13 14 14 14 14 14 13 13 13 13 13 13 13 13 13 12 12 12 12 12 11 11 11 11 11 11 11 11 11 11 10 10
11 12 12 12 12 13 13 13 13 13 13 13 13 13 13 13 13 13 13 13 13 13 13 13 12 12 12 12 12 12 11 11 11 11 11 11 11 11 11 11 10 10 10
11 11 11 12 12 12 12 12 12 12 13 13 13 13 13 13 13 13 13 13 13 12 12 12 12 12 12 12 11 11 11 11 10 10 11 11 11 11 10 10 10 10 10
10 11 11 11 11 11 12 12 12 12 12 12 12 12 12 12 12 12 12 12 12 12 12 12 12 12 11 11 11 11 11 10 10 10 10 10 10 10 10 10 10 10 9
10 10 10 11 11 11 11 11 11 11 12 12 12 12 12 12 12 12 12 12 12 12 12 11 11 11 11 11 11 11 10 10 10 10 10 10 10 10 10 10 9 9 9
10 10 10 10 10 11 11 11 11 11 11 11 11 11 11 11 12 11 12 12 11 11 11 11 11 11 11 11 11 10 10 10 10 10 9 9 9 9 9 9 9 9 9
9 9 9 10 10 10 10 10 10 10 10 10 11 11 11 11 11 11 11 11 11 11 11 11 11 11 11 11 10 10 10 10 9 9 9 9 9 9 8 8 8 8 8
8 9 9 9 9 10 10 10 10 10 10 10 10 10 10 10 11 11 11 11 11 11 11 10 10 10 10 10 10 9 9 9 9 9 9 8 8 8 8 8 8 8 8
8 8 9 9 9 9 9 9 10 10 10 10 9 10 10 10 10 10 10 10 10 10 10 10 10 10 10 10 9 8 8 8 8 8 8 8 8 7 7 7 7 7 7
8 8 8 8 9 9 9 9 9 9 9 9 9 9 9 9 10 10 10 10 10 10 10 9 9 9 9 9 9 8 8 8 8 8 8 7 7 7 7 7 7 7 7
8 8 8 8 8 8 8 8 8 9 9 9 9 9 9 9 9 9 9 9 9 9 9 9 9 9 9 8 8 8 8 7 7 7 7 7 7 7 6 6 6 6 6
7 7 7 8 8 8 8 8 8 8 8 8 8 8 8 8 8 9 9 9 9 9 9 9 8 8 8 8 8 8 7 7 7 6 6 6 6 6 6 6 6 6 6
6 7 7 7 7 7 7 7 7 7 7 8 8 8 8 8 8 8 8 8 8 8 8 8 8 8 8 7 7 7 7 7 6 6 6 6 6 6 6 6 6 6 6
Wind_Speed
4 4 6 6 8 8 9 11 12 12 12 12 12 12 12 12 11 11 11 11 11 10 10 11 11 11 11 11 11 11 11 11 11 10 10 10 10 10 9 8 8 8 10
4 6 8 7 8 9 10 11 12 12 12 12 12 12 12 11 11 11 11 11 10 10 10 10 10 11 11 11 11 11 11 10 10 9 9 9 9 9 8 9 9 8 9
4 6 8 8 8 10 10 11 12 12 12 12 12 12 12 11 11 11 10 10 10 10 10 10 10 10 10 11 10 10 10 10 9 7 5 7 8 9 9 9 9 9 8
5 6 7 8 8 10 10 11 12 12 12 12 12 12 11 11 11 10 10 9 9 9 9 9 10 10 10 10 10 10 9 9 8 4 5 6 7 9 8 8 8 8 8
5 5 7 8 8 9 10 10 11 11 11 11 11 11 11 10 10 10 10 9 9 9 9 9 9 10 9 9 9 9 9 8 6 5 7 6 7 8 8 8 8 7 7
5 5 7 8 8 8 10 10 11 11 11 11 11 11 10 10 10 10 10 9 9 9 9 9 9 9 9 9 9 9 8 6 3 6 6 6 6 7 7 7 6 6 7
4 5 7 9 9 9 9 10 10 10 11 11 11 11 10 10 10 10 9 9 9 9 8 9 9 9 8 8 8 8 7 4 5 6 5 6 7 7 6 6 6 6 6
5 5 7 8 9 9 9 9 9 9 10 11 11 11 10 10 10 10 9 9 8 8 8 8 8 8 8 8 7 7 6 3 4 5 5 6 7 6 6 6 6 6 6
5 5 6 7 8 8 9 9 9 9 9 10 10 10 10 10 10 9 9 8 8 8 7 8 8 7 7 7 7 6 5 3 3 4 4 5 6 5 5 5 5 6 6
5 5 5 6 6 6 7 8 8 8 9 9 9 10 10 9 9 9 8 8 7 7 7 7 7 7 7 7 6 6 4 1 3 3 4 5 6 6 6 6 6 6 6
4 4 4 4 5 5 6 7 7 8 8 8 8 8 8 7 7 7 7 7 7 7 7 7 7 7 7 7 6 5 3 2 3 3 4 6 5 6 6 6 6 6 6
3 3 3 3 4 4 4 5 5 5 5 5 5 6 5 5 5 6 8 7 7 7 7 6 6 6 4 4 5 3 2 2 2 2 4 5 5 5 6 6 6 6 7
3 3 3 3 3 3 3 3 3 3 3 4 4 4 4 4 4 4 5 5 5 5 4 5 5 4 3 3 2 2 2 2 2 2 4 5 5 5 6 6 6 6 7
3 3 2 2 2 3 3 2 3 3 3 3 3 3 3 3 3 2 2 3 3 3 3 3 2 3 3 3 2 2 2 1 1 2 4 5 5 6 6 7 6 7 7
3 2 2 2 2 3 3 2 2 3 3 3 3 2 2 2 2 2 2 2 2 2 2 2 2 3 2 2 2 2 2 1 1 1 2 5 5 6 6 7 7 8 8
2 2 2 2 2 3 3 2 2 2 3 3 3 3 3 2 2 2 2 2 2 2 2 2 2 2 2 2 2 2 1 1 1 1 1 2 4 5 6 7 7 8 8
1 1 2 1 2 2 2 2 2 2 2 3 3 3 3 3 2 2 2 2 1 2 2 2 2 2 2 2 2 1 1 1 0 1 1 1 2 3 5 7 7 8 8
1 1 1 1 2 2 2 3 2 2 3 3 3 3 3 3 3 2 1 1 1 2 2 2 2 2 2 1 1 1 1 0 0 1 1 1 2 2 3 6 7 8 8
1 2 1 2 2 2 3 3 3 3 3 3 3 3 2 3 3 2 1 1 1 1 1 2 2 1 1 1 1 1 1 1 0 0 1 2 2 3 3 4 5 6 8
1 2 2 2 2 3 3 3 3 3 3 3 3 3 3 2 2 2 2 2 1 1 1 2 2 1 1 1 1 1 1 0 1 0 1 1 2 3 4 4 4 5 6
2 2 3 3 2 2 2 2 1 1 2 2 2 2 2 2 2 2 2 2 2 1 1 2 2 2 1 1 1 0 1 1 1 0 0 1 2 3 4 4 5 5 5
1 1 2 2 2 2 1 1 1 1 1 1 1 2 2 2 2 2 2 2 2 1 1 1 1 2 1 1 1 1 1 2 1 1 1 1 2 3 3 4 5 5 5
1 1 1 1 2 1 1 2 2 2 1 1 1 1 1 1 2 1 1 2 2 2 2 2 2 2 2 2 0 1 1 2 2 2 1 2 3 3 3 4 5 5 6
1 1 1 1 1 1 2 2 2 1 1 1 1 1 1 1 2 1 1 2 2 1 1 1 1 1 2 2 2 1 1 1 2 2 2 2 3 4 4 4 4 5 5
1 1 1 1 1 1 1 1 1 1 0 1 1 2 1 1 1 2 1 1 1 1 1 1 1 1 1 2 2 1 1 1 1 2 3 3 3 3 4 4 4 4 5
1 1 1 1 1 1 1 1 1 1 1 1 1 1 1 0 0 1 0 0 0 0 1 1 1 2 2 2 2 2 2 1 2 2 3 4 4 4 4 4 4 4 5
Wind_Direction
156 154 142 143 140 135 134 132 130 127 128 128 126 123 120 115 111 108 104 101 98 97 96 96 93 90 88 86 84 81 79 77 77 75 72 71 68 65 61 57 54 60 59
153 155 145 145 143 139 137 136 133 131 129 130 128 126 122 118 115 111 108 103 100 100 99 97 95 92 89 86 84 82 79 76 77 75 77 79 72 66 60 54 47 54 51
136 146 149 141 142 139 137 139 137 133 132 131 130 128 125 122 117 113 109 106 103 101 100 98 95 93 91 89 87 84 80 77 77 74 82 79 76 70 65 60 57 55 51
126 138 144 136 137 137 134 138 139 137 136 133 133 130 128 125 120 116 112 109 106 104 102 100 98 96 94 91 89 86 81 79 75 69 71 68 71 70 64 58 54 50 48
117 127 128 128 128 134 135 134 137 139 138 135 132 131 129 126 122 119 115 111 108 105 104 100 100 99 98 94 91 87 83 79 75 71 69 65 67 68 60 53 50 47 45
114 116 122 120 120 126 133 132 134 135 134 135 134 131 131 128 124 120 116 112 110 106 104 101 100 100 99 96 92 89 85 78 85 72 68 63 64 62 55 52 50 47 44
107 107 120 116 112 114 121 128 129 132 135 134 133 131 130 130 127 123 118 114 112 109 105 102 99 100 101 100 96 92 86 72 71 73 66 62 59 55 50 50 46 42 38
106 108 116 113 112 111 109 112 124 127 131 134 132 128 129 132 130 125 121 117 115 111 108 107 105 103 103 101 100 96 89 71 80 74 68 65 57 51 49 48 41 35 32
103 106 109 114 116 112 106 104 105 117 121 126 130 128 127 129 131 129 125 121 119 116 113 112 110 107 106 106 104 101 92 60 72 70 65 64 52 45 46 45 38 32 24
100 96 106 109 114 122 117 105 101 105 114 118 121 121 122 127 132 131 129 124 123 121 120 119 116 113 111 112 108 105 107 136 75 74 64 62 47 41 42 36 26 18 10
99 91 92 108 109 113 119 114 108 106 104 116 120 122 130 138 140 139 127 125 126 125 125 124 122 119 119 117 111 112 137 96 84 67 60 52 40 36 33 29 21 12 5
114 101 90 104 107 103 106 117 117 114 118 117 126 137 144 140 135 137 129 122 125 125 126 124 126 132 142 130 125 145 120 97 89 77 63 49 34 28 26 20 13 5 358
137 120 98 96 111 105 100 106 100 99 103 112 121 132 145 140 133 136 142 136 136 138 134 134 140 132 130 123 132 128 106 100 85 78 68 50 32 23 17 10 5 357 353
144 130 108 95 104 106 102 99 109 105 100 110 123 138 136 129 129 130 128 140 148 149 140 146 141 132 130 127 130 125 125 114 90 70 67 51 35 22 12 5 0 353 350
144 131 110 100 107 108 104 94 106 114 113 111 129 137 138 143 143 140 135 135 152 151 148 148 148 138 137 131 133 134 130 116 95 78 82 59 37 22 9 2 358 353 354
137 146 131 130 111 112 108 102 99 103 107 104 95 111 132 138 152 153 145 145 137 149 156 162 153 150 143 137 140 142 137 122 95 75 61 70 52 28 13 6 0 357 358
117 152 157 152 112 106 105 103 85 90 96 99 99 104 111 112 125 151 147 143 138 142 153 158 152 149 135 138 149 140 128 105 80 55 43 16 26 40 24 12 6 1 358
92 87 141 105 109 95 87 94 90 96 94 89 98 98 104 106 104 107 133 138 146 150 153 157 158 154 143 151 161 162 163 137 301 355 25 24 12 6 15 16 6 1 359
99 90 90 101 108 95 86 86 88 92 89 86 85 81 86 106 113 118 103 113 150 152 149 159 166 161 155 149 153 182 205 206 254 353 14 29 17 2 355 4 2 6 2
85 91 86 92 87 87 84 78 79 83 81 76 71 63 60 87 116 124 122 106 115 153 154 160 157 141 142 147 172 197 210 220 231 274 356 17 5 3 1 356 352 353 356
92 87 85 89 84 80 86 89 90 87 86 72 58 52 56 69 98 102 96 113 113 135 160 160 151 150 124 132 169 210 205 208 253 294 304 332 353 359 355 353 348 342 335
134 100 85 89 93 81 76 94 100 106 113 92 67 58 39 48 85 98 112 121 127 136 146 160 161 179 146 157 224 223 233 216 220 273 284 308 325 337 342 343 340 342 336
157 92 94 117 97 89 91 85 84 77 93 105 80 53 31 44 60 84 116 114 122 140 151 175 191 201 190 175 179 262 251 251 281 233 280 293 316 319 325 331 330 336 334
186 125 125 103 101 98 101 114 124 134 149 169 165 129 78 75 58 52 81 107 123 130 149 172 187 209 213 210 203 258 311 328 267 269 249 282 310 309 314 320 318 323 329
162 105 97 113 103 101 121 136 147 147 104 90 129 134 119 96 64 32 81 113 136 141 140 151 187 192 215 229 225 221 228 263 269 269 275 288 295 297 304 306 304 311 318
116 84 91 137 122 158 173 160 169 174 144 116 120 144 130 106 89 22 9 1 175 119 164 184 210 211 213 227 238 235 229 223 243 258 275 284 288 292 295 292 296 304 313
Height
1525 1526 1527 1529 1530 1531 1533 1534 1534 1535 1535 1536 1537 1537 1537 1538 1538 1538 1538 1538 1539 1539 1539 1539 1538 1538 1538 1537 1537 1537 1536 1536 1535 1535 1534 1534 1534 1534 1533 1533 1533 1533 1532
1524 1526 1527 1528 1530 1531 1533 1534 1535 1535 1536 1537 1537 1538 1538 1539 1539 1539 1539 1539 1539 1539 1539 1539 1539 1539 1538 1538 1538 1537 1537 1536 1536 1535 1535 1535 1534 1534 1534 1533 1533 1533 1532
1524 1525 1527 1528 1530 1531 1533 1534 1535 1536 1537 1537 1538 1538 1539 1539 1539 1539 1540 1540 1540 1540 1540 1539 1539 1539 1539 1538 1538 1538 1537 1536 1536 1536 1536 1536 1535 1534 1534 1533 1533 1532 1532
1524 1526 1527 1528 1530 1531 1533 1534 1535 1536 1537 1537 1538 1539 1539 1540 1540 1540 1540 1540 1540 1540 1540 1540 1540 1539 1539 1539 1538 1538 1537 1537 1536 1536 1537 1537 1536 1534 1534 1533 1533 1532 1531
1525 1526 1527 1528 1530 1531 1532 1534 1535 1536 1537 1537 1538 1539 1539 1540 1540 1540 1540 1540 1540 1540 1540 1540 1540 1539 1539 1539 1539 1538 1538 1537 1537 1537 1537 1536 1536 1535 1534 1533 1532 1532 1531
1525 1526 1527 1528 1529 1531 1532 1533 1534 1536 1536 1537 1538 1539 1539 1539 1540 1540 1540 1540 1540 1540 1540 1540 1540 1540 1539 1539 1539 1538 1538 1538 1537 1538 1537 1537 1536 1535 1534 1533 1532 1532 1531
1525 1526 1527 1528 1529 1530 1532 1533 1534 1535 1536 1537 1538 1538 1539 1539 1540 1540 1540 1540 1540 1540 1540 1540 1540 1540 1540 1539 1539 1538 1538 1538 1538 1538 1537 1537 1536 1535 1534 1533 1532 1531 1531
1525 1526 1527 1528 1529 1530 1531 1532 1534 1535 1536 1537 1538 1538 1539 1539 1539 1540 1540 1540 1540 1540 1540 1540 1540 1540 1539 1539 1539 1538 1538 1538 1538 1538 1537 1537 1536 1535 1534 1533 1532 1531 1530
1525 1526 1527 1528 1529 1530 1531 1532 1533 1534 1535 1536 1537 1538 1538 1539 1539 1540 1540 1540 1540 1540 1540 1540 1540 1539 1539 1539 1539 1538 1538 1538 1538 1538 1537 1537 1536 1535 1534 1533 1532 1531 1530
1525 1525 1526 1527 1528 1530 1530 1531 1532 1533 1535 1536 1536 1537 1538 1538 1539 1539 1539 1539 1539 1540 1540 1540 1540 1539 1539 1539 1539 1539 1538 1538 1538 1538 1537 1536 1535 1534 1534 1533 1532 1530 1529
1524 1525 1525 1527 1528 1529 1530 1530 1531 1532 1534 1535 1536 1536 1537 1537 1538 1538 1539 1539 1539 1539 1539 1539 1539 1539 1539 1539 1539 1538 1538 1538 1538 1537 1537 1536 1535 1534 1533 1532 1531 1530 1529
1522 1523 1524 1525 1526 1528 1529 1530 1531 1532 1532 1533 1534 1535 1536 1536 1537 1537 1538 1538 1539 1539 1539 1539 1539 1539 1539 1539 1538 1538 1538 1538 1538 1537 1536 1535 1534 1533 1532 1531 1530 1529 1528
1522 1522 1523 1524 1525 1526 1527 1528 1529 1530 1531 1532 1533 1534 1535 1536 1536 1537 1537 1538 1538 1538 1539 1538 1539 1538 1538 1538 1538 1538 1538 1537 1537 1537 1535 1534 1534 1533 1531 1530 1529 1528 1526
1521 1522 1523 1523 1524 1525 1526 1527 1528 1529 1530 1531 1532 1532 1533 1534 1535 1536 1536 1537 1537 1537 1537 1538 1538 1537 1538 1537 1537 1537 1537 1537 1536 1536 1535 1534 1533 1532 1530 1529 1528 1526 1525
1520 1521 1522 1523 1523 1524 1525 1526 1527 1528 1529 1530 1531 1531 1531 1532 1533 1534 1535 1535 1536 1536 1536 1537 1537 1537 1537 1536 1536 1536 1536 1536 1535 1535 1534 1533 1532 1530 1529 1528 1526 1525 1523
1519 1520 1521 1522 1523 1523 1524 1525 1526 1527 1528 1528 1529 1530 1530 1531 1532 1533 1534 1534 1534 1535 1535 1535 1536 1536 1536 1536 1535 1535 1535 1535 1534 1534 1533 1532 1530 1529 1528 1526 1525 1523 1521
1518 1519 1520 1521 1522 1522 1523 1524 1524 1525 1526 1527 1528 1528 1529 1529 1530 1531 1532 1533 1533 1533 1534 1534 1535 1535 1535 1534 1534 1534 1534 1533 1533 1533 1532 1531 1529 1528 1526 1525 1523 1521 1520
1517 1518 1519 1520 1520 1521 1522 1522 1523 1524 1525 1526 1526 1527 1528 1528 1529 1530 1531 1531 1532 1532 1533 1533 1533 1533 1533 1533 1533 1533 1533 1532 1532 1531 1530 1529 1528 1527 1525 1523 1521 1519 1518
1516 1516 1517 1518 1519 1520 1521 1521 1522 1523 1523 1524 1525 1526 1526 1527 1528 1528 1529 1530 1530 1531 1531 1531 1532 1532 1532 1531 1531 1531 1531 1531 1530 1530 1529 1528 1526 1525 1524 1522 1520 1518 1516
1514 1515 1516 1517 1518 1519 1519 1520 1521 1521 1522 1523 1523 1524 1525 1525 1526 1527 1527 1528 1529 1529 1529 1530 1530 1530 1530 1530 1530 1530 1530 1530 1529 1528 1527 1526 1525 1524 1522 1520 1518 1516 1514
1514 1514 1514 1515 1517 1517 1518 1518 1519 1520 1521 1521 1522 1522 1523 1524 1524 1525 1525 1525 1526 1527 1527 1528 1528 1529 1529 1529 1529 1529 1529 1528 1528 1527 1526 1525 1524 1522 1520 1518 1517 1514 1512
1513 1513 1514 1514 1515 1516 1517 1517 1518 1518 1519 1520 1521 1521 1521 1522 1522 1522 1523 1523 1524 1525 1524 1525 1526 1526 1527 1527 1527 1527 1528 1528 1526 1525 1524 1523 1522 1520 1519 1517 1515 1513 1510
1511 1511 1512 1513 1514 1515 1516 1516 1517 1517 1518 1519 1519 1519 1520 1520 1520 1520 1521 1521 1522 1523 1522 1523 1524 1524 1525 1525 1526 1527 1527 1526 1524 1523 1522 1521 1520 1519 1517 1515 1513 1511 1509
1509 1510 1511 1512 1513 1514 1514 1515 1515 1515 1516 1517 1518 1518 1519 1519 1518 1519 1519 1519 1520 1520 1521 1521 1521 1522 1523 1523 1523 1524 1524 1523 1523 1521 1520 1519 1518 1516 1515 1513 1511 1509 1507
1508 1509 1510 1511 1512 1512 1513 1513 1513 1514 1515 1515 1516 1517 1517 1517 1517 1517 1517 1517 1518 1518 1518 1518 1519 1519 1520 1521 1521 1521 1521 1521 1520 1519 1518 1516 1515 1514 1512 1510 1508 1506 1504
1507 1508 1509 1510 1510 1511 1511 1511 1512 1512 1513 1513 1514 1515 1515 1515 1515 1515 1515 1515 1516 1516 1516 1516 1517 1517 1517 1518 1518 1518 1518 1518 1517 1517 1515 1513 1512 1511 1509 1508 1506 1504 1502